This is the latest recevied weather packets stored in our database for station/object EW3591. If no packets are shown the sender has not sent any weather packets the latest 1 day(s).
| Time | Temp. | Humidity | Pressure | Rain* | Wind** | Luminosity | Snow |
|---|---|---|---|---|---|---|---|
| 1836274791 | 14.44° C | 80% | 1022.4 hPa | 0 mm | 0.45 m/s, 55° | - | - |
| 1836274671 | 14.44° C | 80% | 1022.4 hPa | 0 mm | 0.45 m/s, 12° | - | - |
| 1836274550 | 15° C | 80% | 1022.4 hPa | 0 mm | 0.45 m/s, 11° | - | - |
| 1836274522 | 14.44° C | 80% | 1022.5 hPa | 0 mm | 0.45 m/s, 33° | - | - |
| 1836274430 | 15° C | 80% | 1022.4 hPa | 0 mm | 0.89 m/s, 33° | - | - |
| 1836274402 | 14.44° C | 80% | 1022.4 hPa | 0 mm | 0 m/s | - | - |
| 1836274310 | 15° C | 80% | 1022.4 hPa | 0 mm | 0.45 m/s, 36° | - | - |
| 1836274282 | 14.44° C | 80% | 1022.4 hPa | 0 mm | 0 m/s | - | - |
| 1836274190 | 15° C | 80% | 1022.4 hPa | 0 mm | 1.34 m/s, 28° | - | - |
| 1836274162 | 14.44° C | 80% | 1022.3 hPa | 0 mm | 0.45 m/s, 28° | - | - |
| 1836274069 | 15° C | 80% | 1022.3 hPa | 0 mm | 1.34 m/s, 34° | - | - |
| 1836273949 | 15° C | 80% | 1022.4 hPa | 0 mm | 0.89 m/s, 43° | - | - |
| 1778043830 | 8.89° C | 98% | 1008.5 hPa | 0.76 mm | 0 m/s | - | - |
| 1778043710 | 8.89° C | 98% | 1008.5 hPa | 0.76 mm | 0 m/s | - | - |
| 1778043590 | 8.89° C | 98% | 1008.6 hPa | 0.76 mm | 0 m/s | - | - |
| 1778043470 | 8.89° C | 98% | 1008.6 hPa | 0.76 mm | 0 m/s | - | - |
| 1778043349 | 8.89° C | 98% | 1008.6 hPa | 0.51 mm | 0 m/s | - | - |
| 1778043229 | 8.89° C | 98% | 1008.6 hPa | 0.51 mm | 0.45 m/s, 228° | - | - |
| 1778043109 | 8.89° C | 98% | 1008.6 hPa | 0.51 mm | 0.45 m/s, 228° | - | - |
| 1778042988 | 8.89° C | 98% | 1008.5 hPa | 0.51 mm | 0.45 m/s, 232° | - | - |
| 1778042868 | 8.89° C | 98% | 1008.6 hPa | 0.51 mm | 0 m/s | - | - |
| 1778042748 | 8.89° C | 98% | 1008.6 hPa | 0.25 mm | 0.45 m/s, 239° | - | - |
| 1778042627 | 8.89° C | 98% | 1008.6 hPa | 0.25 mm | 0.45 m/s, 234° | - | - |
| 1778042507 | 8.89° C | 98% | 1008.6 hPa | 0.25 mm | 0 m/s | - | - |
| 1778042387 | 8.89° C | 98% | 1008.5 hPa | 0.25 mm | 0 m/s | - | - |
* Rain latest hour (hover to see other rain measurements)
** Current wind speed in m/s (hover to see current wind gust speed)